,,,PA_Meas_PMT16A,,PR_Meas_QMR101_102,,RH_Meas_QMH101,,SR_Meas_QMS101,,TA_Meas_QMH101,,GenWind,,GenWind,
date,time,status,PA,status,PR,status,RH,status,SR,status,TA,status,DirAvg,status,SpdAvg,
2012-02-13, 00:00:05,VALID,1005.21,VALID,0,VALID,85.2222,VALID,0,VALID,26.159,VALID,355,VALID,1.46445,
2012-02-13, 00:01:05,VALID,1005.2,VALID,0,VALID,85.1612,VALID,0,VALID,26.159,VALID,348,VALID,0.796094,
2012-02-13, 00:02:05,VALID,1005.21,VALID,0,VALID,85.329,VALID,0,VALID,26.1375,VALID,359,VALID,0.931641,
2012-02-13, 00:03:05,VALID,1005.19,VALID,0,VALID,85.3824,VALID,0,VALID,26.0985,VALID,360,VALID,1.3043,
2012-02-13, 00:04:05,VALID,1005.16,VALID,0,VALID,85.2909,VALID,0,VALID,26.1375,VALID,347,VALID,0.979688,
2012-02-13, 00:05:05,VALID,1005.14,VALID,0,VALID,85.3138,VALID,0,VALID,26.157,VALID,347,VALID,1.08789,
2012-02-13, 00:06:05,VALID,1005.16,VALID,0,VALID,85.4129,VALID,0,VALID,26.1375,VALID,3,VALID,1.53125,
2012-02-13, 00:07:05,VALID,1005.09,VALID,0,VALID,85.2833,VALID,0,VALID,26.1375,VALID,352,VALID,1.40508,
2012-02-13, 00:08:05,VALID,1005.07,VALID,0,VALID,85.3214,VALID,0,VALID,26.118,VALID,344,VALID,1.15937,
2012-02-13, 00:09:05,VALID,1005.04,VALID,0,VALID,85.4587,VALID,0,VALID,26.0966,VALID,352,VALID,1.14258,
2012-02-13, 00:10:05,VALID,1005.04,VALID,0,VALID,85.474,VALID,0,VALID,26.118,VALID,352,VALID,1.21719,
2012-02-13, 00:11:05,VALID,1005,VALID,0,VALID,85.4129,VALID,0,VALID,26.0966,VALID,348,VALID,1.49063,
2012-02-13, 00:12:05,VALID,1004.98,VALID,0,VALID,85.596,VALID,0.0815089,VALID,26.0966,VALID,6,VALID,0.807422,
2012-02-13, 00:13:05,VALID,1004.98,VALID,0,VALID,85.6418,VALID,0,VALID,26.0985,VALID,351,VALID,1.11016,
2012-02-13, 00:14:05,VALID,1004.96,VALID,0,VALID,85.7562,VALID,0.0815089,VALID,26.0576,VALID,13,VALID,0.670313,
2012-02-13, 00:15:05,VALID,1004.94,VALID,0,VALID,85.8402,VALID,0,VALID,26.0187,VALID,356,VALID,1.18594,
2012-02-13, 00:16:05,VALID,1004.91,VALID,0,VALID,85.9699,VALID,0,VALID,26.0401,VALID,351,VALID,0.516797,
2012-02-13, 00:17:05,VALID,1004.9,VALID,0,VALID,86.1453,VALID,0.0815089,VALID,25.9992,VALID,3,VALID,0.698438,
2012-02-13, 00:18:05,VALID,1004.89,VALID,0,VALID,86.3284,VALID,0,VALID,25.9602,VALID,25,VALID,1.00039,
2012-02-13, 00:19:05,VALID,1004.91,VALID,0,VALID,86.4047,VALID,0.0815089,VALID,25.9408,VALID,11,VALID,0.885156,
2012-02-13, 00:20:05,VALID,1004.84,VALID,0,VALID,86.5344,VALID,0,VALID,25.9018,VALID,14,VALID,0.951953,
2012-02-13, 00:21:05,VALID,1004.83,VALID,0,VALID,86.6031,VALID,0,VALID,25.9038,VALID,360,VALID,1.01836,
2012-02-13, 00:22:05,VALID,1004.81,VALID,0,VALID,86.6412,VALID,0.0815089,VALID,25.8823,VALID,356,VALID,1.35664,
2012-02-13, 00:23:05,VALID,1004.8,VALID,0,VALID,86.6183,VALID,0.0815089,VALID,25.9018,VALID,353,VALID,1.06992,
2012-02-13, 00:24:05,VALID,1004.77,VALID,0,VALID,86.5115,VALID,0,VALID,25.8843,VALID,341,VALID,1.31562,
2012-02-13, 00:25:05,VALID,1004.74,VALID,0,VALID,86.4886,VALID,0,VALID,25.9038,VALID,350,VALID,1.06641,
2012-02-13, 00:26:05,VALID,1004.73,VALID,0,VALID,86.3894,VALID,0,VALID,25.9038,VALID,348,VALID,1.05156,
2012-02-13, 00:27:05,VALID,1004.68,VALID,0,VALID,86.4505,VALID,0,VALID,25.9038,VALID,2,VALID,0.933984,
2012-02-13, 00:28:05,VALID,1004.7,VALID,0,VALID,86.3742,VALID,0,VALID,25.9038,VALID,353,VALID,1.78945,
2012-02-13, 00:29:05,VALID,1004.67,VALID,0,VALID,86.0309,VALID,0,VALID,25.9232,VALID,348,VALID,1.86328,
2012-02-13, 00:30:05,VALID,1004.65,VALID,0,VALID,85.8478,VALID,0,VALID,25.9817,VALID,338,VALID,1.53867,
2012-02-13, 00:31:05,VALID,1004.68,VALID,0,VALID,85.6494,VALID,0,VALID,25.9817,VALID,349,VALID,1.00859,
2012-02-13, 00:32:05,VALID,1004.67,VALID,0,VALID,85.4587,VALID,0,VALID,26.0012,VALID,343,VALID,2.16641,
2012-02-13, 00:33:05,VALID,1004.63,VALID,0,VALID,85.4435,VALID,0,VALID,26.0616,VALID,355,VALID,1.4125,
2012-02-13, 00:34:05,VALID,1004.64,VALID,0,VALID,85.3748,VALID,0,VALID,26.0206,VALID,322,VALID,1.12539,
2012-02-13, 00:35:05,VALID,1004.6,VALID,0,VALID,85.3443,VALID,0,VALID,26.0012,VALID,359,VALID,1.54414,
2012-02-13, 00:36:05,VALID,1004.59,VALID,0,VALID,85.2451,VALID,0,VALID,26.0206,VALID,352,VALID,1.39922,
2012-02-13, 00:37:05,VALID,1004.55,VALID,0,VALID,85.1383,VALID,0,VALID,26.0206,VALID,348,VALID,1.61133,
2012-02-13, 00:38:05,VALID,1004.52,VALID,0,VALID,85.1307,VALID,0,VALID,26.0206,VALID,12,VALID,2.31641,
2012-02-13, 00:39:05,VALID,1004.51,VALID,0,VALID,85.268,VALID,0,VALID,26.0206,VALID,357,VALID,0.669141,
2012-02-13, 00:40:05,VALID,1004.49,VALID,0,VALID,85.4206,VALID,0,VALID,26.0012,VALID,358,VALID,1.60039,
2012-02-13, 00:41:05,VALID,1004.48,VALID,0,VALID,85.5274,VALID,0,VALID,26.0031,VALID,359,VALID,1.03945,
2012-02-13, 00:42:05,VALID,1004.43,VALID,0,VALID,85.6494,VALID,0,VALID,25.9408,VALID,359,VALID,1.06523,
2012-02-13, 00:43:05,VALID,1004.42,VALID,0,VALID,85.6342,VALID,0,VALID,25.9447,VALID,352,VALID,2.23438,
2012-02-13, 00:44:05,VALID,1004.4,VALID,0,VALID,85.8325,VALID,0,VALID,25.9038,VALID,346,VALID,1.48125,
2012-02-13, 00:45:05,VALID,1004.41,VALID,0,VALID,86.0461,VALID,0,VALID,25.8648,VALID,350,VALID,1.62773,
2012-02-13, 00:46:05,VALID,1004.38,VALID,0,VALID,86.2445,VALID,0,VALID,25.8064,VALID,353,VALID,0.933984,
2012-02-13, 00:47:05,VALID,1004.37,VALID,0,VALID,86.42,VALID,0,VALID,25.7869,VALID,350,VALID,1.5793,
2012-02-13, 00:48:05,VALID,1004.36,VALID,0,VALID,86.6793,VALID,0,VALID,25.7285,VALID,343,VALID,1.0668,
2012-02-13, 00:49:05,VALID,1004.33,VALID,0,VALID,86.8701,VALID,0,VALID,25.6895,VALID,348,VALID,1.28281,
2012-02-13, 00:50:05,VALID,1004.35,VALID,0,VALID,86.9006,VALID,0,VALID,25.6506,VALID,348,VALID,2.25,
2012-02-13, 00:51:05,VALID,1004.37,VALID,0,VALID,87.0608,VALID,0,VALID,25.6311,VALID,341,VALID,1.62461,
2012-02-13, 00:52:05,VALID,1004.35,VALID,0,VALID,87.0989,VALID,0,VALID,25.6116,VALID,350,VALID,1.46797,
2012-02-13, 00:53:05,VALID,1004.36,VALID,0,VALID,86.9845,VALID,0,VALID,25.6116,VALID,345,VALID,1.85469,
2012-02-13, 00:54:05,VALID,1004.34,VALID,0,VALID,87.0684,VALID,0,VALID,25.6116,VALID,352,VALID,1.39609,
2012-02-13, 00:55:05,VALID,1004.33,VALID,0,VALID,87.0074,VALID,0,VALID,25.5921,VALID,25,VALID,1.93125,
2012-02-13, 00:56:05,VALID,1004.28,VALID,0,VALID,86.9998,VALID,0,VALID,25.5921,VALID,360,VALID,2.03008,
2012-02-13, 00:57:05,VALID,1004.24,VALID,0,VALID,86.8624,VALID,0,VALID,25.6116,VALID,359,VALID,1.49727,
2012-02-13, 00:58:05,VALID,1004.23,VALID,0,VALID,86.9616,VALID,0,VALID,25.5921,VALID,1,VALID,1.91953,
2012-02-13, 00:59:05,VALID,1004.19,VALID,0,VALID,86.9006,VALID,0,VALID,25.6116,VALID,357,VALID,1.75312,
2012-02-13, 01:00:05,VALID,1004.2,VALID,0,VALID,87.015,VALID,0,VALID,25.5941,VALID,351,VALID,1.27773,
2012-02-13, 01:01:05,VALID,1004.18,VALID,0,VALID,87.015,VALID,0,VALID,25.5727,VALID,347,VALID,2.04492,
2012-02-13, 01:02:05,VALID,1004.18,VALID,0,VALID,87.076,VALID,0,VALID,25.5727,VALID,4,VALID,1.78711,
2012-02-13, 01:03:05,VALID,1004.15,VALID,0,VALID,87.1752,VALID,0,VALID,25.5532,VALID,18,VALID,1.94258,
2012-02-13, 01:04:05,VALID,1004.15,VALID,0,VALID,87.2668,VALID,0,VALID,25.5337,VALID,347,VALID,1.29727,
2012-02-13, 01:05:05,VALID,1004.16,VALID,0,VALID,87.4575,VALID,0,VALID,25.4753,VALID,357,VALID,1.63398,
2012-02-13, 01:06:05,VALID,1004.12,VALID,0,VALID,87.5643,VALID,0,VALID,25.4344,VALID,357,VALID,1.28633,
2012-02-13, 01:07:05,VALID,1004.1,VALID,0,VALID,87.7169,VALID,0,VALID,25.4169,VALID,359,VALID,1.95859,
2012-02-13, 01:08:05,VALID,1004.08,VALID,0,VALID,87.6863,VALID,0,VALID,25.4169,VALID,351,VALID,2.37617,
2012-02-13, 01:09:05,VALID,1004.03,VALID,0,VALID,87.6177,VALID,0,VALID,25.4558,VALID,28,VALID,1.43398,
2012-02-13, 01:10:05,VALID,1004.02,VALID,0,VALID,87.6024,VALID,0,VALID,25.4363,VALID,351,VALID,1.76055,
2012-02-13, 01:11:05,VALID,1004.01,VALID,0,VALID,87.6787,VALID,0,VALID,25.4149,VALID,348,VALID,0.967188,
2012-02-13, 01:12:05,VALID,1003.97,VALID,0,VALID,87.6711,VALID,0,VALID,25.4169,VALID,353,VALID,2.18086,
2012-02-13, 01:13:05,VALID,1003.94,VALID,0,VALID,87.6635,VALID,0,VALID,25.3974,VALID,348,VALID,1.20039,
2012-02-13, 01:14:05,VALID,1003.94,VALID,0,VALID,87.7398,VALID,0,VALID,25.3974,VALID,5,VALID,1.20938,
2012-02-13, 01:15:05,VALID,1003.91,VALID,0,VALID,87.8389,VALID,0,VALID,25.3779,VALID,360,VALID,2.37891,
2012-02-13, 01:16:05,VALID,1003.88,VALID,0,VALID,87.9534,VALID,0,VALID,25.339,VALID,13,VALID,2.03477,
2012-02-13, 01:17:05,VALID,1003.86,VALID,0,VALID,87.9534,VALID,0,VALID,25.339,VALID,21,VALID,2.28672,
2012-02-13, 01:18:05,VALID,1003.85,VALID,0,VALID,87.9762,VALID,0,VALID,25.339,VALID,350,VALID,1.70195,
2012-02-13, 01:19:05,VALID,1003.82,VALID,0,VALID,87.9915,VALID,0,VALID,25.339,VALID,2,VALID,1.47148,
2012-02-13, 01:20:05,VALID,1003.8,VALID,0,VALID,87.9381,VALID,0,VALID,25.3195,VALID,357,VALID,1.47969,
2012-02-13, 01:21:05,VALID,1003.79,VALID,0,VALID,87.9152,VALID,0,VALID,25.2981,VALID,348,VALID,1.74922,
2012-02-13, 01:22:05,VALID,1003.79,VALID,0,VALID,88.0449,VALID,0,VALID,25.2981,VALID,354,VALID,1.40078,
2012-02-13, 01:23:05,VALID,1003.77,VALID,0,VALID,88.0144,VALID,0,VALID,25.2786,VALID,9,VALID,1.8332,
2012-02-13, 01:24:05,VALID,1003.74,VALID,0,VALID,88.0831,VALID,0,VALID,25.3019,VALID,6,VALID,1.5457,
2012-02-13, 01:25:05,VALID,1003.75,VALID,0,VALID,88.167,VALID,0,VALID,25.2592,VALID,31,VALID,1.08242,
2012-02-13, 01:26:05,VALID,1003.75,VALID,0,VALID,88.1136,VALID,0,VALID,25.2592,VALID,12,VALID,1.08555,
2012-02-13, 01:27:05,VALID,1003.73,VALID,0,VALID,88.1212,VALID,0,VALID,25.2611,VALID,13,VALID,1.67227,
2012-02-13, 01:28:05,VALID,1003.73,VALID,0,VALID,88.0907,VALID,0,VALID,25.2825,VALID,4,VALID,1.66992,
2012-02-13, 01:29:05,VALID,1003.72,VALID,0,VALID,88.022,VALID,0,VALID,25.2806,VALID,20,VALID,2.17617,
2012-02-13, 01:30:05,VALID,1003.74,VALID,0,VALID,87.8694,VALID,0,VALID,25.2806,VALID,353,VALID,2.06992,
2012-02-13, 01:31:05,VALID,1003.76,VALID,0,VALID,87.8694,VALID,0,VALID,25.2611,VALID,357,VALID,1.54102,
2012-02-13, 01:32:05,VALID,1003.76,VALID,0,VALID,87.755,VALID,0,VALID,25.2611,VALID,12,VALID,1.46211,
2012-02-13, 01:33:05,VALID,1003.72,VALID,0,VALID,87.5033,VALID,0,VALID,25.2416,VALID,354,VALID,1.68711,
2012-02-13, 01:34:05,VALID,1003.71,VALID,0,VALID,87.4346,VALID,0,VALID,25.2397,VALID,19,VALID,1.28086,
2012-02-13, 01:35:05,VALID,1003.72,VALID,0,VALID,87.1676,VALID,0,VALID,25.2611,VALID,357,VALID,1.7125,
2012-02-13, 01:36:05,VALID,1003.73,VALID,0,VALID,86.6259,VALID,0,VALID,25.2611,VALID,358,VALID,2.00078,
2012-02-13, 01:37:05,VALID,1003.68,VALID,0,VALID,85.4663,VALID,0,VALID,25.2806,VALID,9,VALID,3.09922,
2012-02-13, 01:38:05,VALID,1003.67,VALID,0,VALID,85.1612,VALID,0,VALID,25.3584,VALID,356,VALID,1.72383,
2012-02-13, 01:39:05,VALID,1003.71,VALID,0,VALID,84.9934,VALID,0,VALID,25.3779,VALID,5,VALID,2.09219,
2012-02-13, 01:40:05,VALID,1003.69,VALID,0,VALID,84.2152,VALID,0,VALID,25.3779,VALID,353,VALID,1.62266,
2012-02-13, 01:41:05,VALID,1003.69,VALID,0,VALID,83.9101,VALID,0,VALID,25.3955,VALID,354,VALID,2.66797,
2012-02-13, 01:42:05,VALID,1003.69,VALID,0,VALID,83.7804,VALID,0,VALID,25.4363,VALID,356,VALID,1.99531,
2012-02-13, 01:43:05,VALID,1003.68,VALID,0,VALID,83.5973,VALID,0,VALID,25.4363,VALID,20,VALID,2.64844,
2012-02-13, 01:44:05,VALID,1003.68,VALID,0,VALID,83.8643,VALID,0,VALID,25.4558,VALID,355,VALID,1.96523,
2012-02-13, 01:45:05,VALID,1003.64,VALID,0,VALID,83.7498,VALID,0,VALID,25.4149,VALID,345,VALID,2.12578,
2012-02-13, 01:46:05,VALID,1003.66,VALID,0,VALID,83.4294,VALID,0,VALID,25.4169,VALID,345,VALID,1.54141,
2012-02-13, 01:47:05,VALID,1003.59,VALID,0,VALID,83.315,VALID,0,VALID,25.4577,VALID,5,VALID,2.28125,
2012-02-13, 01:48:05,VALID,1003.59,VALID,0,VALID,82.5216,VALID,0,VALID,25.4967,VALID,348,VALID,2.49883,
2012-02-13, 01:49:05,VALID,1003.58,VALID,0,VALID,82.5369,VALID,0,VALID,25.4948,VALID,336,VALID,1.51836,
2012-02-13, 01:50:05,VALID,1003.55,VALID,0,VALID,82.1173,VALID,0,VALID,25.5337,VALID,345,VALID,2.22891,
2012-02-13, 01:51:05,VALID,1003.54,VALID,0,VALID,81.9342,VALID,0,VALID,25.5337,VALID,351,VALID,1.30039,
2012-02-13, 01:52:05,VALID,1003.52,VALID,0,VALID,81.4764,VALID,0,VALID,25.5513,VALID,357,VALID,1.98828,
2012-02-13, 01:53:05,VALID,1003.5,VALID,0,VALID,81.0034,VALID,0.0815089,VALID,25.5727,VALID,347,VALID,1.69023,
2012-02-13, 01:54:05,VALID,1003.51,VALID,0,VALID,80.8966,VALID,0,VALID,25.5532,VALID,358,VALID,1.81875,
2012-02-13, 01:55:05,VALID,1003.53,VALID,0,VALID,80.8051,VALID,0,VALID,25.5532,VALID,8,VALID,1.50781,
2012-02-13, 01:56:05,VALID,1003.49,VALID,0,VALID,81.0416,VALID,0,VALID,25.5318,VALID,351,VALID,2.17188,
2012-02-13, 01:57:05,VALID,1003.47,VALID,0,VALID,80.9119,VALID,0,VALID,25.5532,VALID,360,VALID,2.27617,
2012-02-13, 01:58:05,VALID,1003.47,VALID,0,VALID,81.0111,VALID,0,VALID,25.5532,VALID,359,VALID,2.54141,
2012-02-13, 01:59:05,VALID,1003.46,VALID,0,VALID,81.6443,VALID,0,VALID,25.5532,VALID,11,VALID,1.90469,
2012-02-13, 02:00:05,VALID,1003.42,VALID,0,VALID,81.0034,VALID,0,VALID,25.5337,VALID,16,VALID,2.32188,
2012-02-13, 02:01:05,VALID,1003.42,VALID,0,VALID,81.5222,VALID,0,VALID,25.5532,VALID,8,VALID,0.978516,
2012-02-13, 02:02:05,VALID,1003.41,VALID,0,VALID,82.3614,VALID,0,VALID,25.5318,VALID,25,VALID,1.61367,
2012-02-13, 02:03:05,VALID,1003.38,VALID,0,VALID,82.2927,VALID,0,VALID,25.4928,VALID,27,VALID,1.35938,
2012-02-13, 02:04:05,VALID,1003.4,VALID,0,VALID,82.5521,VALID,0,VALID,25.5142,VALID,344,VALID,1.28984,
2012-02-13, 02:05:05,VALID,1003.39,VALID,0,VALID,82.6284,VALID,0,VALID,25.4948,VALID,6,VALID,0.714063,
2012-02-13, 02:06:05,VALID,1003.36,VALID,0,VALID,82.3461,VALID,0,VALID,25.4753,VALID,15,VALID,1.21094,
2012-02-13, 02:07:05,VALID,1003.38,VALID,0,VALID,81.7511,VALID,0,VALID,25.4948,VALID,347,VALID,1.26797,
2012-02-13, 02:08:05,VALID,1003.39,VALID,0,VALID,81.1408,VALID,0,VALID,25.5142,VALID,9,VALID,1.51172,
2012-02-13, 02:09:05,VALID,1003.39,VALID,0,VALID,81.3162,VALID,0,VALID,25.5921,VALID,351,VALID,1.40937,
2012-02-13, 02:10:05,VALID,1003.38,VALID,0,VALID,81.5756,VALID,0,VALID,25.6136,VALID,348,VALID,1.87812,
2012-02-13, 02:11:05,VALID,1003.4,VALID,0,VALID,80.6678,VALID,0,VALID,25.5921,VALID,347,VALID,1.85742,
2012-02-13, 02:12:05,VALID,1003.36,VALID,0,VALID,80.4923,VALID,0,VALID,25.633,VALID,346,VALID,2.13828,
2012-02-13, 02:13:05,VALID,1003.36,VALID,0,VALID,80.8127,VALID,0,VALID,25.6311,VALID,356,VALID,1.82383,
2012-02-13, 02:14:05,VALID,1003.33,VALID,0,VALID,80.5915,VALID,0,VALID,25.6311,VALID,352,VALID,1.64453,
2012-02-13, 02:15:04,VALID,1003.32,VALID,0,VALID,80.5991,VALID,0,VALID,25.6311,VALID,14,VALID,1.52852,
2012-02-13, 02:16:04,VALID,1003.3,VALID,0,VALID,80.7746,VALID,0,VALID,25.6116,VALID,15,VALID,1.20742,
2012-02-13, 02:17:04,VALID,1003.29,VALID,0,VALID,81.0263,VALID,0,VALID,25.6116,VALID,360,VALID,1.26289,
2012-02-13, 02:18:04,VALID,1003.26,VALID,0,VALID,81.1026,VALID,0,VALID,25.5727,VALID,3,VALID,1.40937,
2012-02-13, 02:19:04,VALID,1003.22,VALID,0,VALID,79.8286,VALID,0,VALID,25.5727,VALID,29,VALID,2.74688,
2012-02-13, 02:20:04,VALID,1003.21,VALID,0,VALID,80.1948,VALID,0,VALID,25.67,VALID,352,VALID,2.07461,
2012-02-13, 02:21:04,VALID,1003.25,VALID,0,VALID,79.9583,VALID,0,VALID,25.6876,VALID,342,VALID,1.06719,
2012-02-13, 02:22:04,VALID,1003.21,VALID,0,VALID,79.7676,VALID,0,VALID,25.7265,VALID,359,VALID,1.3832,
2012-02-13, 02:23:04,VALID,1003.2,VALID,0,VALID,80.0727,VALID,0,VALID,25.7265,VALID,1,VALID,0.637891,
2012-02-13, 02:24:04,VALID,1003.2,VALID,0,VALID,80.1032,VALID,0.0815089,VALID,25.709,VALID,358,VALID,1.55938,
2012-02-13, 02:25:04,VALID,1003.2,VALID,0,VALID,80.2482,VALID,0,VALID,25.67,VALID,358,VALID,1.375,
2012-02-13, 02:26:04,VALID,1003.2,VALID,0,VALID,79.6226,VALID,0,VALID,25.6895,VALID,357,VALID,1.6793,
2012-02-13, 02:27:04,VALID,1003.19,VALID,0,VALID,79.5845,VALID,0,VALID,25.709,VALID,341,VALID,1.01992,
2012-02-13, 02:28:04,VALID,1003.15,VALID,0,VALID,79.6379,VALID,0,VALID,25.709,VALID,21,VALID,1.03086,
2012-02-13, 02:29:04,VALID,1003.17,VALID,0,VALID,79.943,VALID,0,VALID,25.709,VALID,1,VALID,1.02695,
2012-02-13, 02:30:04,VALID,1003.15,VALID,0,VALID,80.4237,VALID,0,VALID,25.67,VALID,354,VALID,1.66094,
2012-02-13, 02:31:04,VALID,1003.1,VALID,0,VALID,80.4847,VALID,0,VALID,25.6506,VALID,6,VALID,1.51758,
2012-02-13, 02:32:04,VALID,1003.13,VALID,0,VALID,79.5769,VALID,0,VALID,25.633,VALID,18,VALID,2.09102,
2012-02-13, 02:33:04,VALID,1003.09,VALID,0,VALID,79.676,VALID,0,VALID,25.6915,VALID,345,VALID,1.14844,
2012-02-13, 02:34:04,VALID,1003.07,VALID,0,VALID,79.8515,VALID,0,VALID,25.67,VALID,357,VALID,1.46797,
2012-02-13, 02:35:04,VALID,1003.04,VALID,0,VALID,80.2253,VALID,0,VALID,25.67,VALID,347,VALID,1.40703,
2012-02-13, 02:36:04,VALID,1003.01,VALID,0,VALID,79.8286,VALID,0,VALID,25.6486,VALID,353,VALID,1.20273,
2012-02-13, 02:37:04,VALID,1003,VALID,0,VALID,79.7752,VALID,0,VALID,25.6486,VALID,352,VALID,1.60938,
2012-02-13, 02:38:04,VALID,1002.98,VALID,0,VALID,79.3022,VALID,0,VALID,25.67,VALID,351,VALID,1.69453,
2012-02-13, 02:39:04,VALID,1003.01,VALID,0,VALID,79.3861,VALID,0,VALID,25.709,VALID,342,VALID,0.9375,
2012-02-13, 02:40:04,VALID,1003,VALID,0,VALID,78.7529,VALID,0,VALID,25.7285,VALID,336,VALID,1.41211,
2012-02-13, 02:41:04,VALID,1003.01,VALID,0,VALID,78.9055,VALID,0,VALID,25.7694,VALID,360,VALID,1.6543,
2012-02-13, 02:42:04,VALID,1003.01,VALID,0,VALID,78.8063,VALID,0,VALID,25.7674,VALID,340,VALID,1.24727,
2012-02-13, 02:43:04,VALID,1003.01,VALID,0,VALID,79.0733,VALID,0,VALID,25.748,VALID,354,VALID,1.27266,
2012-02-13, 02:44:04,VALID,1002.99,VALID,0,VALID,78.2113,VALID,0,VALID,25.7285,VALID,12,VALID,1.98359,
2012-02-13, 02:45:04,VALID,1003.01,VALID,0,VALID,78.4859,VALID,0,VALID,25.7869,VALID,2,VALID,1.12227,
2012-02-13, 02:46:04,VALID,1003,VALID,0,VALID,78.402,VALID,0,VALID,25.7869,VALID,357,VALID,0.529297,
2012-02-13, 02:47:04,VALID,1002.99,VALID,0,VALID,78.0129,VALID,0,VALID,25.7869,VALID,15,VALID,1.25078,
2012-02-13, 02:48:04,VALID,1002.99,VALID,0,VALID,77.7078,VALID,0,VALID,25.8259,VALID,15,VALID,2.00195,
2012-02-13, 02:49:04,VALID,1002.97,VALID,0,VALID,77.0746,VALID,0,VALID,25.9038,VALID,27,VALID,1.40117,
2012-02-13, 02:50:04,VALID,1002.93,VALID,0,VALID,77.0822,VALID,0,VALID,25.9427,VALID,1,VALID,1.19648,
2012-02-13, 02:51:04,VALID,1002.9,VALID,0,VALID,76.5634,VALID,0,VALID,25.9622,VALID,343,VALID,1.30742,
2012-02-13, 02:52:04,VALID,1002.9,VALID,0,VALID,76.7465,VALID,0,VALID,25.9622,VALID,353,VALID,1.67891,
2012-02-13, 02:53:04,VALID,1002.89,VALID,0,VALID,77.4789,VALID,0,VALID,26.0012,VALID,22,VALID,1.45859,
2012-02-13, 02:54:04,VALID,1002.86,VALID,0,VALID,78.0587,VALID,0,VALID,25.9622,VALID,7,VALID,1.18711,
2012-02-13, 02:55:04,VALID,1002.82,VALID,0,VALID,77.8146,VALID,0,VALID,25.9018,VALID,9,VALID,1.08164,
2012-02-13, 02:56:04,VALID,1002.83,VALID,0,VALID,77.8832,VALID,0,VALID,25.8648,VALID,341,VALID,0.966797,
2012-02-13, 02:57:04,VALID,1002.81,VALID,0,VALID,77.5857,VALID,0,VALID,25.8239,VALID,11,VALID,1.48867,
2012-02-13, 02:58:04,VALID,1002.79,VALID,0,VALID,77.6467,VALID,0,VALID,25.8843,VALID,13,VALID,1.54961,
2012-02-13, 02:59:04,VALID,1002.79,VALID,0,VALID,76.2278,VALID,0,VALID,25.9038,VALID,342,VALID,1.66953,
2012-02-13, 03:00:04,VALID,1002.79,VALID,0,VALID,76.2735,VALID,0,VALID,25.9622,VALID,346,VALID,1.28437,
2012-02-13, 03:01:04,VALID,1002.74,VALID,0,VALID,75.9455,VALID,0,VALID,26.0206,VALID,345,VALID,1.32031,
2012-02-13, 03:02:04,VALID,1002.79,VALID,0,VALID,75.6937,VALID,0,VALID,26.0381,VALID,349,VALID,1.2707,
2012-02-13, 03:03:04,VALID,1002.79,VALID,0,VALID,75.709,VALID,0,VALID,26.0791,VALID,345,VALID,1.56445,
2012-02-13, 03:04:04,VALID,1002.81,VALID,0,VALID,75.8921,VALID,0,VALID,26.1005,VALID,350,VALID,1.39844,
2012-02-13, 03:05:04,VALID,1002.8,VALID,0,VALID,75.9837,VALID,0,VALID,26.0791,VALID,338,VALID,1.57344,
2012-02-13, 03:06:04,VALID,1002.79,VALID,0,VALID,75.8082,VALID,0,VALID,26.0791,VALID,2,VALID,1.39766,
2012-02-13, 03:07:04,VALID,1002.78,VALID,0,VALID,75.2055,VALID,0,VALID,26.118,VALID,348,VALID,1.50195,
2012-02-13, 03:08:04,VALID,1002.77,VALID,0,VALID,75.6861,VALID,0,VALID,26.118,VALID,1,VALID,0.973047,
2012-02-13, 03:09:04,VALID,1002.76,VALID,0,VALID,75.0758,VALID,0,VALID,26.1375,VALID,339,VALID,1.42773,
2012-02-13, 03:10:04,VALID,1002.75,VALID,0,VALID,75.9913,VALID,0,VALID,26.157,VALID,350,VALID,0.913672,
2012-02-13, 03:11:04,VALID,1002.75,VALID,0,VALID,76.1133,VALID,0,VALID,26.12,VALID,350,VALID,1.49375,
2012-02-13, 03:12:04,VALID,1002.75,VALID,0,VALID,76.716,VALID,0,VALID,26.0596,VALID,345,VALID,1.13242,
2012-02-13, 03:13:04,VALID,1002.78,VALID,0,VALID,76.9907,VALID,0,VALID,26.0206,VALID,349,VALID,1.28789,
2012-02-13, 03:14:04,VALID,1002.77,VALID,0,VALID,77.4865,VALID,0,VALID,25.9622,VALID,349,VALID,0.903906,
2012-02-13, 03:15:04,VALID,1002.77,VALID,0,VALID,77.2272,VALID,0,VALID,25.9038,VALID,349,VALID,1.62422,
2012-02-13, 03:16:04,VALID,1002.77,VALID,0,VALID,77.9824,VALID,0,VALID,25.8648,VALID,340,VALID,1.19414,
2012-02-13, 03:17:04,VALID,1002.76,VALID,0,VALID,77.9977,VALID,0,VALID,25.785,VALID,347,VALID,1.91562,
2012-02-13, 03:18:04,VALID,1002.77,VALID,0,VALID,77.7383,VALID,0,VALID,25.7869,VALID,348,VALID,1.55742,
2012-02-13, 03:19:04,VALID,1002.75,VALID,0,VALID,77.868,VALID,0,VALID,25.7869,VALID,347,VALID,1.38437,
2012-02-13, 03:20:04,VALID,1002.74,VALID,0,VALID,78.5927,VALID,0,VALID,25.7674,VALID,4,VALID,1.45352,
2012-02-13, 03:21:04,VALID,1002.76,VALID,0,VALID,78.9971,VALID,0,VALID,25.6895,VALID,342,VALID,1.21211,
2012-02-13, 03:22:04,VALID,1002.72,VALID,0,VALID,78.8903,VALID,0,VALID,25.6525,VALID,3,VALID,1.58203,
2012-02-13, 03:23:04,VALID,1002.71,VALID,0,VALID,79.203,VALID,0,VALID,25.6116,VALID,348,VALID,0.935156,
2012-02-13, 03:24:04,VALID,1002.74,VALID,0,VALID,78.8521,VALID,0,VALID,25.5921,VALID,348,VALID,1.63633,
2012-02-13, 03:25:04,VALID,1002.73,VALID,0,VALID,78.5317,VALID,0,VALID,25.6116,VALID,337,VALID,1.70664,
2012-02-13, 03:26:04,VALID,1002.76,VALID,0,VALID,77.5399,VALID,0,VALID,25.6525,VALID,345,VALID,2.44531,
2012-02-13, 03:27:04,VALID,1002.77,VALID,0,VALID,76.861,VALID,0,VALID,25.6895,VALID,352,VALID,2.29883,
2012-02-13, 03:28:04,VALID,1002.78,VALID,0,VALID,75.9989,VALID,0,VALID,25.7674,VALID,350,VALID,2.3625,
2012-02-13, 03:29:04,VALID,1002.79,VALID,0,VALID,76.2583,VALID,0,VALID,25.7869,VALID,348,VALID,1.53945,
2012-02-13, 03:30:04,VALID,1002.81,VALID,0,VALID,76.3651,VALID,0,VALID,25.8083,VALID,14,VALID,0.931641,
2012-02-13, 03:31:04,VALID,1002.81,VALID,0,VALID,75.7777,VALID,0,VALID,25.7674,VALID,344,VALID,1.55781,
2012-02-13, 03:32:04,VALID,1002.81,VALID,0,VALID,75.5946,VALID,0,VALID,25.7674,VALID,345,VALID,1.67109,
2012-02-13, 03:33:04,VALID,1002.83,VALID,0,VALID,76.2583,VALID,0,VALID,25.746,VALID,22,VALID,0.380078,
2012-02-13, 03:34:04,VALID,1002.88,VALID,0,VALID,74.763,VALID,0,VALID,25.7674,VALID,356,VALID,1.36992,
2012-02-13, 03:35:04,VALID,1002.88,VALID,0,VALID,74.7859,VALID,0,VALID,25.8064,VALID,7,VALID,1.40195,
2012-02-13, 03:36:04,VALID,1002.9,VALID,0,VALID,74.9309,VALID,0,VALID,25.8259,VALID,353,VALID,0.996875,
2012-02-13, 03:37:04,VALID,1002.9,VALID,0,VALID,73.3746,VALID,0,VALID,25.8064,VALID,13,VALID,2.13008,
2012-02-13, 03:38:04,VALID,1002.89,VALID,0,VALID,74.229,VALID,0,VALID,25.8648,VALID,345,VALID,1.03555,
2012-02-13, 03:39:04,VALID,1002.96,VALID,0,VALID,74.496,VALID,0,VALID,25.8473,VALID,345,VALID,1.52188,
2012-02-13, 03:40:04,VALID,1002.99,VALID,0,VALID,75.381,VALID,0,VALID,25.8064,VALID,278,VALID,0.615234,
2012-02-13, 03:41:04,VALID,1003,VALID,0,VALID,75.2971,VALID,0,VALID,25.7869,VALID,336,VALID,0.545703,
2012-02-13, 03:42:04,VALID,1003.02,VALID,0,VALID,75.9379,VALID,0,VALID,25.7889,VALID,334,VALID,0.142578,
2012-02-13, 03:43:04,VALID,1003.03,VALID,0,VALID,76.7084,VALID,0,VALID,25.7285,VALID,336,VALID,0.115234,
2012-02-13, 03:44:04,VALID,1003.06,VALID,0,VALID,76.9296,VALID,0,VALID,25.67,VALID,341,VALID,0.682031,
2012-02-13, 03:45:04,VALID,1003.06,VALID,0,VALID,77.4865,VALID,0,VALID,25.6525,VALID,336,VALID,1.05313,
2012-02-13, 03:46:04,VALID,1003.05,VALID,0,VALID,77.9443,VALID,0,VALID,25.5941,VALID,251,VALID,0.0878906,